QPF
0.01 0.01 0.01 0.00 0.00 0.00 0.00 0.01 0.01 0.01 0.02 0.02 0.02 0.03 0.04 0.08 0.09 0.08 0.06 0.08 0.08 0.08 0.09 0.10 0.12 0.12 0.12 0.11 0.10 0.10 0.07 0.06 0.06 0.06 0.06 0.06 0.06 0.07 0.08 0.07 0.05 0.05 0.03
0.00 0.01 0.01 0.01 0.00 0.00 0.00 0.00 0.00 0.01 0.01 0.01 0.02 0.02 0.03 0.06 0.10 0.15 0.17 0.14 0.10 0.09 0.11 0.12 0.09 0.08 0.07 0.06 0.07 0.07 0.05 0.05 0.06 0.05 0.05 0.06 0.07 0.09 0.08 0.07 0.07 0.06 0.05
0.00 0.01 0.01 0.00 0.00 0.00 0.00 0.00 0.00 0.00 0.01 0.01 0.01 0.01 0.03 0.05 0.09 0.15 0.14 0.12 0.10 0.10 0.12 0.13 0.09 0.06 0.05 0.04 0.05 0.06 0.07 0.07 0.07 0.06 0.08 0.09 0.09 0.07 0.06 0.06 0.06 0.07 0.08
0.00 0.01 0.01 0.00 0.00 0.00 0.00 0.00 0.00 0.00 0.01 0.01 0.02 0.02 0.03 0.06 0.08 0.07 0.06 0.05 0.05 0.06 0.08 0.09 0.08 0.07 0.06 0.06 0.05 0.06 0.08 0.09 0.08 0.08 0.09 0.10 0.09 0.08 0.07 0.06 0.05 0.04 0.04
0.00 0.01 0.00 0.00 0.00 0.00 0.00 0.00 0.00 0.00 0.01 0.01 0.02 0.04 0.05 0.06 0.07 0.06 0.05 0.04 0.04 0.04 0.05 0.04 0.05 0.06 0.07 0.09 0.08 0.07 0.08 0.09 0.10 0.11 0.10 0.08 0.06 0.07 0.07 0.06 0.05 0.05 0.03
0.00 0.00 0.00 0.00 0.00 0.00 0.00 0.00 0.00 0.00 0.01 0.00 0.01 0.02 0.04 0.05 0.05 0.03 0.03 0.03 0.03 0.03 0.04 0.03 0.03 0.04 0.05 0.06 0.07 0.09 0.10 0.12 0.14 0.15 0.13 0.09 0.08 0.08 0.07 0.06 0.05 0.05 0.03
0.00 0.00 0.00 0.00 0.00 0.00 0.00 0.00 0.00 0.01 0.01 0.01 0.01 0.01 0.02 0.02 0.02 0.01 0.02 0.03 0.02 0.03 0.04 0.04 0.03 0.03 0.04 0.05 0.05 0.06 0.08 0.10 0.14 0.20 0.20 0.13 0.09 0.09 0.09 0.07 0.05 0.05 0.05
0.00 0.00 0.00 0.00 0.00 0.00 0.00 0.00 0.00 0.01 0.01 0.01 0.01 0.01 0.01 0.01 0.01 0.01 0.01 0.02 0.02 0.02 0.02 0.02 0.02 0.02 0.02 0.03 0.05 0.06 0.06 0.06 0.08 0.09 0.11 0.10 0.07 0.06 0.06 0.06 0.07 0.06 0.06
0.00 0.00 0.00 0.00 0.00 0.00 0.00 0.00 0.00 0.00 0.00 0.00 0.00 0.01 0.01 0.01 0.01 0.01 0.01 0.01 0.02 0.02 0.02 0.02 0.02 0.01 0.02 0.02 0.04 0.05 0.05 0.06 0.05 0.05 0.07 0.07 0.06 0.05 0.05 0.07 0.08 0.09 0.07
0.00 0.00 0.00 0.00 0.00 0.00 0.00 0.00 0.00 0.00 0.00 0.00 0.01 0.02 0.03 0.04 0.02 0.01 0.01 0.01 0.01 0.03 0.03 0.01 0.02 0.02 0.02 0.02 0.03 0.03 0.04 0.05 0.06 0.07 0.08 0.10 0.10 0.09 0.08 0.08 0.08 0.09 0.10
0.00 0.00 0.00 0.00 0.00 0.00 0.00 0.00 0.00 0.00 0.01 0.01 0.01 0.01 0.03 0.08 0.05 0.01 0.01 0.01 0.02 0.03 0.03 0.02 0.02 0.02 0.02 0.02 0.03 0.03 0.03 0.06 0.08 0.09 0.10 0.13 0.18 0.19 0.17 0.16 0.13 0.11 0.11
0.00 0.00 0.00 0.00 0.00 0.00 0.00 0.00 0.00 0.00 0.00 0.01 0.00 0.01 0.02 0.04 0.03 0.01 0.02 0.01 0.01 0.03 0.03 0.02 0.02 0.02 0.03 0.02 0.02 0.02 0.04 0.07 0.07 0.06 0.06 0.06 0.09 0.13 0.14 0.14 0.15 0.15 0.13
0.00 0.00 0.00 0.00 0.00 0.00 0.00 0.00 0.00 0.00 0.00 0.00 0.00 0.01 0.01 0.01 0.01 0.01 0.02 0.02 0.02 0.02 0.02 0.01 0.01 0.02 0.02 0.03 0.02 0.01 0.02 0.04 0.04 0.02 0.02 0.02 0.04 0.06 0.10 0.11 0.11 0.14 0.15
0.00 0.00 0.00 0.00 0.01 0.01 0.00 0.00 0.01 0.01 0.01 0.01 0.01 0.00 0.01 0.01 0.01 0.01 0.01 0.02 0.03 0.03 0.02 0.02 0.02 0.02 0.02 0.03 0.03 0.02 0.01 0.01 0.01 0.01 0.01 0.01 0.02 0.03 0.05 0.08 0.09 0.10 0.11
0.00 0.00 0.00 0.01 0.01 0.01 0.01 0.01 0.01 0.01 0.01 0.01 0.01 0.01 0.01 0.02 0.02 0.01 0.01 0.01 0.01 0.02 0.02 0.02 0.02 0.02 0.01 0.01 0.01 0.01 0.01 0.01 0.01 0.02 0.01 0.01 0.02 0.02 0.02 0.03 0.04 0.06 0.07
0.00 0.00 0.00 0.01 0.01 0.01 0.01 0.01 0.01 0.01 0.01 0.02 0.02 0.02 0.02 0.03 0.03 0.02 0.02 0.02 0.02 0.02 0.02 0.02 0.01 0.01 0.01 0.00 0.00 0.01 0.02 0.02 0.02 0.02 0.02 0.02 0.02 0.02 0.02 0.02 0.03 0.04 0.05
0.00 0.00 0.00 0.01 0.01 0.02 0.01 0.01 0.01 0.01 0.01 0.02 0.02 0.01 0.02 0.03 0.03 0.02 0.03 0.03 0.04 0.04 0.03 0.02 0.01 0.01 0.01 0.01 0.02 0.02 0.02 0.03 0.03 0.02 0.03 0.02 0.02 0.02 0.02 0.02 0.02 0.02 0.03
0.00 0.01 0.01 0.01 0.01 0.01 0.02 0.01 0.01 0.02 0.02 0.02 0.02 0.01 0.02 0.02 0.02 0.02 0.02 0.03 0.05 0.05 0.05 0.04 0.03 0.03 0.02 0.02 0.03 0.03 0.03 0.03 0.03 0.02 0.02 0.02 0.03 0.03 0.03 0.03 0.03 0.03 0.03
0.00 0.01 0.01 0.01 0.02 0.02 0.02 0.02 0.02 0.04 0.03 0.01 0.01 0.01 0.01 0.02 0.01 0.01 0.02 0.02 0.02 0.04 0.04 0.04 0.04 0.04 0.03 0.04 0.04 0.05 0.05 0.05 0.03 0.03 0.04 0.04 0.04 0.05 0.06 0.06 0.06 0.06 0.04
0.01 0.01 0.01 0.01 0.01 0.02 0.02 0.02 0.01 0.04 0.04 0.02 0.02 0.01 0.01 0.01 0.02 0.02 0.03 0.04 0.04 0.04 0.04 0.04 0.05 0.06 0.05 0.05 0.05 0.05 0.04 0.04 0.03 0.03 0.04 0.04 0.04 0.05 0.05 0.04 0.04 0.04 0.03
0.00 0.00 0.01 0.01 0.01 0.02 0.02 0.01 0.01 0.01 0.03 0.02 0.02 0.03 0.03 0.04 0.04 0.04 0.04 0.05 0.05 0.05 0.04 0.04 0.05 0.05 0.04 0.03 0.03 0.03 0.02 0.02 0.02 0.02 0.03 0.03 0.02 0.02 0.02 0.03 0.02 0.03 0.04
0.01 0.01 0.01 0.01 0.02 0.02 0.02 0.02 0.02 0.02 0.02 0.01 0.02 0.05 0.05 0.05 0.04 0.04 0.05 0.05 0.05 0.04 0.04 0.03 0.03 0.02 0.02 0.02 0.02 0.02 0.02 0.02 0.02 0.02 0.02 0.02 0.02 0.02 0.02 0.02 0.03 0.04 0.04
0.02 0.01 0.02 0.02 0.01 0.01 0.02 0.02 0.02 0.02 0.02 0.01 0.01 0.02 0.03 0.03 0.03 0.03 0.03 0.02 0.02 0.02 0.02 0.02 0.02 0.02 0.02 0.02 0.02 0.01 0.01 0.01 0.01 0.01 0.01 0.01 0.01 0.01 0.01 0.02 0.03 0.03 0.04
0.03 0.03 0.03 0.03 0.02 0.02 0.01 0.01 0.02 0.02 0.03 0.03 0.02 0.02 0.01 0.02 0.02 0.01 0.01 0.01 0.01 0.01 0.01 0.01 0.02 0.02 0.02 0.02 0.02 0.01 0.01 0.01 0.01 0.01 0.01 0.01 0.01 0.01 0.01 0.02 0.02 0.02 0.02
0.03 0.03 0.02 0.02 0.02 0.02 0.02 0.02 0.03 0.03 0.03 0.03 0.03 0.02 0.02 0.02 0.02 0.02 0.02 0.02 0.02 0.02 0.02 0.01 0.02 0.02 0.02 0.02 0.02 0.01 0.02 0.02 0.02 0.02 0.02 0.01 0.01 0.01 0.01 0.02 0.02 0.02 0.02
0.02 0.02 0.02 0.01 0.01 0.01 0.02 0.03 0.04 0.04 0.04 0.03 0.03 0.03 0.02 0.02 0.02 0.02 0.02 0.02 0.02 0.02 0.02 0.02 0.02 0.02 0.02 0.03 0.03 0.03 0.03 0.03 0.04 0.04 0.03 0.03 0.04 0.05 0.04 0.04 0.03 0.03 0.03
MSLP
1006.74 1007.01 1007.32 1007.68 1008.09 1008.58 1009.16 1009.82 1010.52 1011.23 1011.88 1012.43 1012.84 1013.10 1013.22 1013.25 1013.24 1013.25 1013.32 1013.49 1013.75 1014.08 1014.44 1014.79 1015.09 1015.32 1015.47 1015.57 1015.63 1015.69 1015.78 1015.89 1016.03 1016.18 1016.32 1016.41 1016.44 1016.40 1016.31 1016.17 1016.04 1015.92 1015.85
1006.33 1006.51 1006.72 1006.98 1007.31 1007.74 1008.28 1008.93 1009.67 1010.43 1011.17 1011.81 1012.31 1012.65 1012.83 1012.89 1012.89 1012.88 1012.93 1013.06 1013.28 1013.58 1013.93 1014.27 1014.57 1014.81 1014.97 1015.07 1015.15 1015.22 1015.33 1015.48 1015.67 1015.89 1016.11 1016.30 1016.44 1016.49 1016.47 1016.39 1016.27 1016.14 1016.04
1006.04 1006.12 1006.22 1006.37 1006.61 1006.95 1007.42 1008.04 1008.76 1009.55 1010.34 1011.05 1011.63 1012.04 1012.29 1012.40 1012.42 1012.41 1012.44 1012.55 1012.74 1013.02 1013.34 1013.67 1013.97 1014.21 1014.38 1014.50 1014.58 1014.67 1014.79 1014.98 1015.22 1015.50 1015.80 1016.08 1016.31 1016.45 1016.51 1016.49 1016.41 1016.29 1016.19
1005.85 1005.84 1005.84 1005.89 1006.01 1006.25 1006.63 1007.17 1007.85 1008.62 1009.41 1010.15 1010.78 1011.26 1011.57 1011.73 1011.78 1011.80 1011.84 1011.93 1012.11 1012.37 1012.68 1013.01 1013.31 1013.56 1013.74 1013.87 1013.97 1014.08 1014.22 1014.43 1014.70 1015.03 1015.38 1015.73 1016.03 1016.26 1016.39 1016.44 1016.40 1016.32 1016.23
1005.75 1005.65 1005.58 1005.53 1005.55 1005.68 1005.95 1006.39 1006.98 1007.68 1008.44 1009.16 1009.80 1010.31 1010.66 1010.87 1010.97 1011.02 1011.07 1011.18 1011.36 1011.61 1011.93 1012.26 1012.57 1012.84 1013.05 1013.21 1013.34 1013.47 1013.64 1013.86 1014.15 1014.51 1014.90 1015.29 1015.64 1015.92 1016.12 1016.22 1016.23 1016.19 1016.13
1005.69 1005.55 1005.42 1005.30 1005.24 1005.26 1005.42 1005.73 1006.20 1006.79 1007.45 1008.12 1008.73 1009.23 1009.60 1009.83 1009.97 1010.06 1010.15 1010.28 1010.48 1010.75 1011.08 1011.43 1011.77 1012.08 1012.33 1012.53 1012.70 1012.86 1013.05 1013.29 1013.60 1013.96 1014.36 1014.77 1015.15 1015.47 1015.70 1015.85 1015.91 1015.92 1015.90
1005.67 1005.52 1005.37 1005.21 1005.08 1005.02 1005.05 1005.23 1005.55 1006.00 1006.53 1007.09 1007.62 1008.08 1008.43 1008.68 1008.85 1008.97 1009.10 1009.27 1009.50 1009.80 1010.15 1010.53 1010.91 1011.26 1011.56 1011.82 1012.04 1012.24 1012.47 1012.74 1013.05 1013.42 1013.82 1014.22 1014.60 1014.93 1015.19 1015.37 1015.48 1015.54 1015.57
1005.69 1005.56 1005.42 1005.25 1005.08 1004.94 1004.87 1004.91 1005.07 1005.35 1005.73 1006.14 1006.56 1006.94 1007.25 1007.49 1007.67 1007.83 1007.99 1008.20 1008.46 1008.79 1009.18 1009.60 1010.02 1010.41 1010.77 1011.09 1011.37 1011.63 1011.90 1012.20 1012.53 1012.89 1013.28 1013.67 1014.04 1014.38 1014.64 1014.85 1015.00 1015.10 1015.17
1005.76 1005.68 1005.56 1005.40 1005.21 1005.01 1004.85 1004.76 1004.76 1004.88 1005.07 1005.33 1005.62 1005.89 1006.14 1006.35 1006.53 1006.71 1006.90 1007.14 1007.44 1007.81 1008.22 1008.68 1009.14 1009.58 1009.99 1010.36 1010.71 1011.03 1011.35 1011.68 1012.03 1012.40 1012.78 1013.16 1013.52 1013.84 1014.11 1014.33 1014.51 1014.65 1014.76
1005.90 1005.88 1005.80 1005.65 1005.45 1005.20 1004.96 1004.75 1004.61 1004.55 1004.58 1004.68 1004.82 1004.98 1005.15 1005.33 1005.50 1005.69 1005.91 1006.18 1006.52 1006.91 1007.35 1007.83 1008.32 1008.80 1009.25 1009.68 1010.08 1010.46 1010.83 1011.20 1011.58 1011.96 1012.34 1012.71 1013.05 1013.37 1013.63 1013.86 1014.06 1014.22 1014.37
1006.13 1006.15 1006.10 1005.96 1005.74 1005.45 1005.13 1004.82 1004.55 1004.34 1004.21 1004.16 1004.17 1004.23 1004.33 1004.46 1004.62 1004.82 1005.07 1005.37 1005.74 1006.15 1006.62 1007.11 1007.62 1008.12 1008.61 1009.08 1009.53 1009.96 1010.37 1010.78 1011.19 1011.58 1011.97 1012.33 1012.67 1012.97 1013.23 1013.45 1013.66 1013.84 1014.01
1006.46 1006.49 1006.43 1006.28 1006.02 1005.68 1005.28 1004.88 1004.49 1004.16 1003.90 1003.72 1003.61 1003.58 1003.62 1003.72 1003.88 1004.09 1004.37 1004.72 1005.11 1005.56 1006.04 1006.55 1007.07 1007.59 1008.10 1008.59 1009.07 1009.53 1009.98 1010.43 1010.86 1011.27 1011.66 1012.02 1012.35 1012.63 1012.88 1013.10 1013.29 1013.48 1013.65
1006.84 1006.85 1006.75 1006.54 1006.22 1005.81 1005.34 1004.85 1004.36 1003.93 1003.56 1003.27 1003.08 1002.98 1002.97 1003.05 1003.22 1003.47 1003.79 1004.17 1004.62 1005.10 1005.61 1006.14 1006.68 1007.20 1007.72 1008.22 1008.72 1009.20 1009.68 1010.14 1010.59 1011.02 1011.41 1011.76 1012.07 1012.34 1012.57 1012.77 1012.95 1013.12 1013.29
1007.25 1007.18 1006.99 1006.69 1006.29 1005.80 1005.25 1004.67 1004.10 1003.58 1003.12 1002.76 1002.50 1002.35 1002.31 1002.39 1002.58 1002.87 1003.25 1003.70 1004.20 1004.74 1005.30 1005.86 1006.41 1006.94 1007.46 1007.97 1008.47 1008.96 1009.45 1009.92 1010.38 1010.80 1011.19 1011.54 1011.83 1012.07 1012.27 1012.45 1012.60 1012.75 1012.90
1007.62 1007.44 1007.15 1006.73 1006.22 1005.64 1005.00 1004.35 1003.71 1003.11 1002.59 1002.16 1001.85 1001.66 1001.61 1001.70 1001.92 1002.27 1002.71 1003.24 1003.82 1004.43 1005.05 1005.65 1006.23 1006.79 1007.32 1007.83 1008.32 1008.81 1009.29 1009.76 1010.21 1010.63 1011.00 1011.33 1011.60 1011.82 1011.98 1012.12 1012.24 1012.36 1012.48
1007.92 1007.62 1007.20 1006.67 1006.05 1005.38 1004.66 1003.94 1003.24 1002.58 1002.00 1001.52 1001.17 1000.95 1000.89 1000.99 1001.25 1001.65 1002.17 1002.78 1003.45 1004.15 1004.85 1005.52 1006.15 1006.73 1007.27 1007.78 1008.27 1008.74 1009.20 1009.65 1010.08 1010.48 1010.83 1011.14 1011.38 1011.57 1011.71 1011.81 1011.89 1011.97 1012.06
1008.12 1007.71 1007.18 1006.55 1005.85 1005.10 1004.32 1003.54 1002.79 1002.09 1001.46 1000.93 1000.54 1000.29 1000.22 1000.33 1000.62 1001.08 1001.68 1002.38 1003.14 1003.94 1004.72 1005.46 1006.14 1006.77 1007.32 1007.83 1008.30 1008.75 1009.18 1009.60 1010.00 1010.37 1010.70 1010.98 1011.20 1011.36 1011.47 1011.54 1011.58 1011.63 1011.69
1008.24 1007.76 1007.15 1006.46 1005.70 1004.91 1004.10 1003.29 1002.50 1001.76 1001.10 1000.53 1000.10 999.82 999.74 999.85 1000.16 1000.66 1001.33 1002.11 1002.97 1003.85 1004.72 1005.54 1006.28 1006.93 1007.51 1008.01 1008.46 1008.87 1009.26 1009.64 1009.99 1010.33 1010.63 1010.88 1011.08 1011.22 1011.31 1011.35 1011.37 1011.39 1011.41
1008.32 1007.81 1007.18 1006.47 1005.71 1004.91 1004.10 1003.29 1002.49 1001.74 1001.05 1000.45 999.98 999.68 999.57 999.68 1000.01 1000.54 1001.25 1002.10 1003.03 1003.99 1004.94 1005.81 1006.60 1007.28 1007.86 1008.35 1008.77 1009.14 1009.47 1009.79 1010.10 1010.39 1010.65 1010.88 1011.06 1011.19 1011.26 1011.30 1011.30 1011.29 1011.29
1008.40 1007.90 1007.31 1006.64 1005.92 1005.16 1004.38 1003.60 1002.82 1002.08 1001.38 1000.77 1000.28 999.96 999.83 999.93 1000.26 1000.81 1001.56 1002.45 1003.43 1004.45 1005.44 1006.36 1007.17 1007.86 1008.43 1008.88 1009.25 1009.56 1009.83 1010.08 1010.33 1010.56 1010.79 1010.99 1011.15 1011.28 1011.35 1011.38 1011.38 1011.36 1011.33
1008.51 1008.09 1007.56 1006.97 1006.33 1005.65 1004.95 1004.23 1003.50 1002.78 1002.10 1001.50 1001.01 1000.68 1000.55 1000.65 1000.98 1001.54 1002.30 1003.21 1004.21 1005.25 1006.26 1007.19 1008.00 1008.67 1009.21 1009.61 1009.92 1010.15 1010.34 1010.52 1010.69 1010.86 1011.04 1011.21 1011.36 1011.48 1011.56 1011.60 1011.60 1011.57 1011.52
1008.70 1008.36 1007.94 1007.45 1006.92 1006.34 1005.73 1005.09 1004.44 1003.78 1003.15 1002.58 1002.12 1001.81 1001.69 1001.80 1002.13 1002.69 1003.45 1004.35 1005.35 1006.38 1007.38 1008.29 1009.06 1009.69 1010.17 1010.51 1010.73 1010.88 1010.98 1011.07 1011.16 1011.27 1011.39 1011.53 1011.66 1011.78 1011.86 1011.91 1011.92 1011.89 1011.83
1008.95 1008.71 1008.39 1008.02 1007.60 1007.13 1006.63 1006.10 1005.53 1004.96 1004.41 1003.91 1003.50 1003.24 1003.15 1003.27 1003.62 1004.17 1004.91 1005.79 1006.76 1007.75 1008.70 1009.55 1010.27 1010.83 1011.23 1011.49 1011.63 1011.68 1011.69 1011.69 1011.69 1011.73 1011.80 1011.90 1012.01 1012.12 1012.21 1012.27 1012.29 1012.27 1012.20
1009.26 1009.10 1008.88 1008.61 1008.30 1007.94 1007.55 1007.12 1006.67 1006.20 1005.74 1005.34 1005.01 1004.81 1004.78 1004.93 1005.28 1005.83 1006.54 1007.38 1008.29 1009.21 1010.09 1010.86 1011.50 1011.98 1012.30 1012.47 1012.52 1012.49 1012.41 1012.32 1012.25 1012.21 1012.23 1012.28 1012.37 1012.47 1012.56 1012.63 1012.67 1012.65 1012.58
1009.60 1009.51 1009.36 1009.18 1008.95 1008.70 1008.41 1008.09 1007.74 1007.38 1007.04 1006.74 1006.51 1006.39 1006.42 1006.60 1006.97 1007.50 1008.17 1008.95 1009.78 1010.61 1011.40 1012.08 1012.62 1013.02 1013.25 1013.35 1013.32 1013.22 1013.07 1012.91 1012.77 1012.68 1012.64 1012.65 1012.71 1012.80 1012.89 1012.97 1013.01 1013.00 1012.94
1009.98 1009.92 1009.83 1009.70 1009.55 1009.37 1009.17 1008.94 1008.70 1008.45 1008.22 1008.03 1007.90 1007.86 1007.94 1008.17 1008.53 1009.04 1009.65 1010.35 1011.09 1011.82 1012.50 1013.08 1013.54 1013.85 1014.02 1014.06 1013.99 1013.83 1013.64 1013.43 1013.25 1013.11 1013.03 1013.01 1013.04 1013.11 1013.20 1013.27 1013.32 1013.33 1013.27
Thickness
5812 5811 5808 5805 5802 5798 5794 5791 5789 5787 5785 5783 5781 5778 5776 5776 5776 5774 5772 5770 5768 5767 5765 5766 5763 5762 5760 5758 5757 5755 5753 5753 5753 5751 5749 5751 5752 5751 5749 5748 5748 5746 5745
5811 5809 5808 5806 5803 5799 5796 5793 5790 5788 5786 5784 5782 5780 5778 5777 5776 5774 5771 5770 5768 5767 5767 5764 5764 5762 5760 5757 5755 5753 5753 5752 5752 5749 5746 5743 5744 5747 5750 5747 5746 5745 5744
5812 5810 5808 5807 5806 5802 5798 5796 5792 5790 5787 5785 5784 5781 5778 5776 5775 5773 5772 5771 5769 5767 5766 5764 5763 5761 5761 5758 5755 5754 5751 5749 5750 5750 5746 5741 5738 5742 5745 5745 5745 5743 5742
5816 5814 5812 5809 5808 5806 5803 5798 5794 5791 5788 5786 5784 5781 5777 5773 5773 5773 5773 5771 5769 5767 5765 5764 5762 5761 5761 5757 5757 5756 5753 5750 5748 5748 5747 5745 5743 5737 5736 5742 5743 5741 5739
5819 5817 5816 5814 5812 5810 5806 5802 5796 5791 5789 5786 5784 5781 5779 5777 5775 5773 5771 5769 5768 5767 5766 5764 5762 5761 5760 5758 5756 5755 5753 5752 5750 5747 5745 5743 5741 5740 5735 5733 5736 5738 5739
5821 5819 5818 5816 5814 5813 5809 5804 5797 5792 5789 5786 5784 5781 5778 5775 5773 5771 5770 5769 5769 5768 5766 5765 5762 5761 5760 5758 5756 5754 5753 5751 5750 5748 5747 5744 5741 5738 5737 5733 5733 5733 5735
5822 5819 5816 5813 5812 5811 5808 5804 5798 5792 5790 5787 5784 5782 5779 5776 5773 5772 5770 5769 5769 5768 5765 5765 5762 5761 5760 5758 5756 5754 5753 5751 5749 5747 5746 5745 5744 5742 5739 5735 5734 5732 5733
5822 5820 5817 5814 5812 5810 5807 5803 5798 5793 5791 5787 5783 5782 5779 5778 5776 5773 5773 5771 5770 5769 5767 5764 5762 5760 5759 5758 5755 5755 5753 5751 5749 5748 5745 5744 5744 5743 5740 5736 5732 5729 5731
5821 5819 5818 5815 5812 5809 5807 5804 5799 5794 5791 5787 5784 5781 5778 5776 5774 5773 5771 5771 5769 5768 5765 5763 5761 5760 5758 5756 5754 5753 5751 5749 5748 5747 5745 5743 5743 5742 5740 5737 5734 5728 5724
5819 5818 5817 5814 5812 5810 5808 5805 5799 5794 5791 5788 5785 5782 5778 5775 5772 5771 5769 5768 5766 5765 5763 5761 5759 5758 5756 5755 5753 5752 5750 5748 5746 5745 5743 5741 5741 5740 5739 5737 5735 5732 5727
5817 5816 5816 5814 5812 5810 5806 5802 5798 5793 5790 5787 5784 5781 5777 5774 5770 5768 5767 5766 5764 5762 5760 5758 5757 5756 5754 5752 5750 5749 5747 5745 5744 5743 5741 5739 5738 5737 5736 5734 5732 5730 5727
5817 5815 5814 5811 5808 5806 5804 5799 5796 5792 5789 5786 5782 5779 5776 5773 5770 5767 5765 5764 5761 5760 5758 5755 5754 5753 5751 5749 5748 5746 5744 5742 5741 5739 5738 5736 5735 5733 5732 5730 5729 5727 5725
5811 5811 5808 5806 5804 5802 5799 5796 5793 5789 5788 5784 5781 5777 5774 5770 5767 5764 5762 5761 5758 5756 5755 5753 5751 5749 5748 5746 5745 5743 5741 5740 5738 5736 5734 5732 5731 5728 5728 5726 5725 5724 5723
5803 5803 5801 5799 5799 5796 5794 5792 5789 5786 5783 5780 5777 5773 5770 5767 5765 5762 5759 5756 5754 5752 5751 5749 5747 5746 5745 5742 5741 5739 5738 5736 5734 5732 5731 5729 5727 5724 5722 5721 5719 5718 5715
5796 5796 5795 5794 5792 5790 5788 5786 5784 5781 5778 5774 5771 5768 5766 5763 5760 5758 5755 5753 5751 5750 5747 5745 5743 5742 5741 5739 5737 5735 5734 5731 5729 5727 5726 5724 5721 5718 5716 5716 5714 5712 5710
5791 5792 5790 5788 5786 5784 5783 5781 5778 5776 5773 5769 5766 5763 5761 5758 5756 5753 5751 5748 5746 5744 5743 5741 5739 5737 5737 5732 5728 5727 5728 5727 5724 5722 5720 5720 5718 5713 5710 5708 5706 5704 5703
5787 5786 5785 5784 5782 5781 5778 5775 5773 5771 5768 5764 5761 5758 5756 5753 5750 5749 5746 5744 5742 5739 5737 5736 5734 5732 5729 5724 5722 5720 5721 5721 5719 5717 5715 5716 5715 5711 5708 5704 5700 5698 5695
5783 5782 5781 5780 5779 5777 5774 5771 5768 5765 5761 5759 5756 5754 5751 5748 5745 5743 5740 5738 5736 5734 5731 5729 5728 5726 5723 5718 5715 5713 5714 5715 5713 5712 5710 5708 5706 5704 5700 5699 5697 5695 5693
5779 5778 5777 5775 5773 5770 5768 5764 5760 5757 5754 5753 5751 5749 5746 5742 5739 5737 5734 5732 5730 5728 5726 5725 5722 5720 5717 5712 5710 5707 5710 5708 5707 5706 5704 5702 5699 5694 5691 5691 5690 5688 5687
5773 5771 5771 5769 5765 5763 5761 5757 5754 5751 5749 5748 5746 5744 5740 5737 5734 5732 5729 5728 5725 5723 5722 5720 5718 5715 5712 5708 5704 5700 5704 5703 5702 5700 5698 5694 5691 5687 5684 5684 5683 5681 5680
5763 5763 5762 5759 5758 5756 5753 5750 5748 5746 5745 5742 5739 5736 5733 5731 5729 5726 5724 5722 5720 5717 5715 5713 5712 5710 5707 5703 5698 5695 5696 5697 5696 5695 5694 5691 5684 5680 5676 5675 5675 5673 5671
5753 5754 5752 5750 5749 5748 5745 5743 5741 5741 5739 5736 5732 5729 5727 5726 5724 5720 5717 5715 5713 5710 5708 5706 5705 5705 5702 5698 5693 5689 5687 5686 5687 5687 5687 5684 5677 5673 5670 5669 5668 5665 5663
5743 5743 5742 5741 5741 5741 5739 5735 5735 5734 5731 5728 5724 5722 5720 5718 5716 5713 5711 5709 5707 5706 5704 5702 5700 5699 5697 5693 5687 5684 5681 5678 5679 5680 5676 5673 5669 5667 5667 5664 5661 5659 5660
5732 5733 5733 5731 5730 5731 5731 5730 5729 5726 5723 5720 5717 5715 5714 5712 5709 5707 5706 5704 5701 5699 5697 5695 5693 5691 5689 5686 5683 5680 5677 5673 5672 5672 5669 5665 5662 5661 5661 5660 5658 5657 5656
5722 5723 5723 5722 5722 5722 5722 5722 5721 5718 5714 5711 5710 5709 5708 5706 5702 5700 5697 5695 5693 5691 5688 5687 5686 5683 5679 5674 5668 5668 5669 5668 5667 5664 5664 5662 5660 5658 5657 5656 5654 5651 5649
5713 5713 5713 5713 5714 5713 5713 5713 5712 5709 5706 5704 5703 5703 5702 5699 5697 5694 5689 5683 5681 5678 5675 5673 5671 5671 5666 5661 5659 5657 5655 5654 5652 5653 5656 5655 5653 5652 5650 5649 5646 5644 5641